TimeMST,TemperatureF,Dew PointF,Humidity,Sea Level PressureIn,VisibilityMPH,Wind Direction,Wind SpeedMPH,Gust SpeedMPH,PrecipitationIn,Events,Conditions,WindDirDegrees,DateUTC
12:53 AM,16.0,8.1,71,30.20,10.0,NNE,3.5,-,N/A,,Clear,20,2013-02-13 07:53:00
1:53 AM,15.1,8.1,74,30.20,10.0,North,-9999.0,-,N/A,,Clear,0,2013-02-13 08:53:00
2:53 AM,14.0,7.0,74,30.19,10.0,NNW,3.5,-,N/A,,Clear,340,2013-02-13 09:53:00
3:53 AM,12.9,8.1,81,30.18,10.0,North,3.5,-,N/A,,Clear,350,2013-02-13 10:53:00
4:53 AM,12.9,6.1,74,30.19,10.0,Calm,Calm,-,N/A,,Clear,0,2013-02-13 11:53:00
5:53 AM,10.0,6.1,84,30.24,10.0,SSW,3.5,-,N/A,,Clear,200,2013-02-13 12:53:00
6:53 AM,10.0,5.0,80,30.25,10.0,South,3.5,-,N/A,,Clear,190,2013-02-13 13:53:00
7:53 AM,10.9,7.0,84,30.25,10.0,Calm,Calm,-,N/A,,Clear,0,2013-02-13 14:53:00
8:53 AM,21.9,9.0,58,30.23,10.0,Calm,Calm,-,N/A,,Clear,0,2013-02-13 15:53:00
9:53 AM,30.0,10.9,45,30.19,10.0,NNE,6.9,-,N/A,,Clear,20,2013-02-13 16:53:00
10:53 AM,35.1,12.0,39,30.18,10.0,North,6.9,-,N/A,,Clear,350,2013-02-13 17:53:00
11:53 AM,37.9,12.0,35,30.15,10.0,NW,6.9,-,N/A,,Clear,310,2013-02-13 18:53:00
12:53 PM,41.0,14.0,33,30.12,10.0,North,8.1,-,N/A,,Clear,10,2013-02-13 19:53:00
1:53 PM,43.0,15.1,32,30.10,10.0,NNW,11.5,20.7,N/A,,Clear,340,2013-02-13 20:53:00
2:53 PM,43.0,14.0,31,30.09,10.0,North,15.0,21.9,N/A,,Clear,360,2013-02-13 21:53:00
3:53 PM,43.0,14.0,31,30.11,10.0,North,13.8,-,N/A,,Clear,350,2013-02-13 22:53:00
4:53 PM,41.0,14.0,33,30.12,10.0,NNW,11.5,-,N/A,,Clear,340,2013-02-13 23:53:00
5:53 PM,34.0,16.0,48,30.18,10.0,NW,5.8,-,N/A,,Clear,320,2013-02-14 00:53:00
6:53 PM,30.0,16.0,56,30.21,10.0,Calm,Calm,-,N/A,,Clear,0,2013-02-14 01:53:00
7:53 PM,28.0,16.0,61,30.21,10.0,Calm,Calm,-,N/A,,Clear,0,2013-02-14 02:53:00
8:53 PM,25.0,16.0,69,30.19,10.0,Calm,Calm,-,N/A,,Clear,0,2013-02-14 03:53:00
9:53 PM,24.1,16.0,71,30.17,10.0,Calm,Calm,-,N/A,,Clear,0,2013-02-14 04:53:00
10:53 PM,21.9,16.0,78,30.15,10.0,Calm,Calm,-,N/A,,Clear,0,2013-02-14 05:53:00
11:53 PM,19.0,15.1,85,30.15,10.0,Calm,Calm,-,N/A,,Clear,0,2013-02-14 06:53:00